Location: Newark
(13.6797°N, 8.5297°E)
Time: 06:43:23
(UTC+00:00)

Courier 1B Rocket - Pass Details

Date: 22 January 2020
Orbit: 920 x 1202 km, 28.2° (Epoch: 17 February)

Event Time Altitude Azimuth Distance (km) Brightness Sun altitude
Rises 10:02:02 0° 245° (WSW) 4,010 8.1 49.2°
Reaches altitude 10° 10:04:55 10° 246° (WSW) 3,015 7.6 49.6°
Maximum altitude 10:12:22 83° 334° (NNW) 1,088 6.1 50.6°
Drops below altitude 10° 10:19:16 10° 62° (ENE) 2,805 7.6 51.4°
Sets 10:21:52 0° 63° (ENE) 3,716 8.1 51.8°
